Flag for Germany Weather past 2 weeks in Singen (Hohentwiel), Baden-Württemberg, Germany

Now
72 °F

Scattered clouds.


Feels Like: 76 °F
Forecast: 53 / 78 °F
Wind: 3 mph from Northwest

Location: Konstanz

Current Time: Jul 24, 2014 at 8:40:22 PM

Latest Report: Jul 24, 2014 at 8:00 PM


Visibility: 19 mi

Pressure: 29.85 "Hg

Humidity: 61%

Dew point: 58 °F

Location of Singen (Hohentwiel)Location

Historic Weather in Singen (Hohentwiel) — Graph

°F

Singen (Hohentwiel) temperature yesterday

Maximum temperature yesterday: 78 °F (at 5:00 PM)
Minimum temperature yesterday: 62 °F (at 6:00 AM)
Average temperature yesterday: 71 °F

Past Weeks' High & Low Weather Summary

 TemperatureHumidityPressure
High91 °F (Jul 19, 6:00 PM)99% (Jul 23, 4:00 AM)30.19 "Hg (Jul 23, 4:00 AM)
Low51 °F (Jul 10, 6:00 AM)14% (Jul 18, 5:00 PM)29.78 "Hg (Jul 20, 4:00 AM)
Average67 °F72%29.95 "Hg
* Reported Jul 9 7:00 PM — Jul 24 7:00 PM, Singen (Hohentwiel), Weather by CustomWeather, © 2014

Note: Actual official high and low records may vary slightly from our data, if they occured in-between our weather recording intervals... More about our weather records

Advertising

Singen (Hohentwiel) weather history for previous 24 hours

 ConditionsComfort  
Time TempWeatherWind HumidityBarometerVisibility
7:00 PM
Jul 24
74 °FPartly sunny.3 mph56%29.84 "Hg19 mi
6:00 PM74 °FPartly sunny.3 mph56%29.84 "Hg19 mi
5:00 PM75 °FPartly sunny.5 mph49%29.84 "Hg19 mi
4:00 PM80 °FPartly sunny.3 mph40%29.82 "Hg19 mi
3:00 PM80 °FPartly sunny.3 mph40%29.82 "Hg19 mi
2:00 PM79 °FOvercast.3 mph43%29.83 "Hg25 mi
1:00 PM78 °FPartly sunny.1 mph44%29.84 "Hg19 mi
12:00 PM74 °FPartly sunny.2 mph50%29.85 "Hg19 mi
11:00 AM73 °FPartly sunny.2 mph55%29.85 "Hg19 mi
10:00 AM69 °FOvercast.1 mph58%29.85 "Hg19 mi
9:00 AM67 °FOvercast.2 mph65%29.86 "Hg19 mi
8:00 AM65 °FOvercast.1 mph70%29.85 "Hg19 mi
7:00 AM62 °FOvercast.1 mph78%29.85 "Hg17 mi
6:00 AM63 °FOvercast.2 mph77%29.85 "Hg16 mi
5:00 AM63 °FClear.2 mph74%29.84 "Hg22 mi
4:00 AM64 °FClear.3 mph70%29.84 "Hg25 mi
3:00 AM64 °FClear.2 mph71%29.85 "Hg22 mi
2:00 AM66 °FClear.1 mph65%29.86 "Hg25 mi
1:00 AM68 °FClear.3 mph61%29.86 "Hg28 mi
12:00 AM69 °FClear.5 mph58%29.86 "Hg28 mi
11:00 PM
Jul 23
70 °FClear.3 mph57%29.87 "Hg28 mi
10:00 PM70 °FClear.2 mph60%29.87 "Hg25 mi
9:00 PM73 °FPartly sunny.2 mph55%29.86 "Hg22 mi
8:00 PM77 °FPartly sunny.3 mph50%29.84 "Hg22 mi
Weather by CustomWeather, © 2014

See weather overviewHow to use our weather pages